DW4433 Weather Reports


Display with metric or nautical units.
time (UTC)temp
F
wind
direction
speed
MPH
gust
MPH
rain 1hr
in
rain 24hr
in
rain mn
in
humidity
%
barometer
mb
20260506083015 56 241 0.0 0.0 0.00 0.00 0.00 100 1011.9
20260506081508 53 280 0.0 0.0 0.00 0.00 0.00 100 1011.9
20260506073058 51 268 0.0 0.0 0.00 0.00 0.00 100 1012.0
20260506071548 50 282 0.0 0.0 0.00 0.00 0.00 100 1011.9
20260506061544 49 43 0.0 0.0 0.00 0.00 0.00 100 1011.8
20260506044556 49 270 0.0 0.0 0.00 0.00 0.00 100 1011.5
20260506043100 49 270 0.0 0.0 0.00 0.00 0.00 100 1011.3
20260506041551 50 348 0.0 0.0 0.00 0.00 0.00 100 1011.3
20260506040046 50 348 0.0 0.0 0.00 0.00 0.00 100 1011.3
20260506034541 50 103 0.0 0.0 0.00 0.00 0.00 100 1011.2
20260506033038 50 102 0.0 0.0 0.00 0.00 0.00 100 1011.3
20260506031539 50 57 0.0 0.0 0.00 0.00 0.00 100 1011.2
20260506030028 51 40 0.0 0.0 0.00 0.00 0.00 100 1011.2
20260506024534 51 355 0.0 0.0 0.00 0.00 0.00 100 1011.3
20260506023014 51 355 0.0 0.0 0.00 0.00 0.00 100 1011.4
20260506021508 52 17 0.0 0.0 0.00 0.00 0.00 100 1011.4
20260506020006 52 17 0.0 1.0 0.00 0.00 0.00 100 1011.4
20260506014557 52 14 0.0 0.0 0.00 0.00 0.00 100 1011.4
20260506013102 52 30 0.0 0.0 0.00 0.00 0.00 100 1011.3
20260506011602 52 30 0.0 0.0 0.00 0.00 0.00 100 1011.4
20260506010043 52 30 0.0 1.0 0.00 0.00 0.00 100 1011.5
20260506004509 52 49 0.0 0.0 0.00 0.00 0.00 100 1011.6
20260506003005 52 46 0.0 1.0 0.00 0.00 0.00 100 1011.5
20260506001558 52 56 0.0 1.0 0.00 0.00 0.00 100 1011.5
20260506000054 52 84 0.0 2.0 0.00 0.00 0.00 100 1011.4
20260505234600 53 267 0.0 0.0 0.00 0.00 0.00 100 1011.2
20260505233046 53 34 0.0 4.0 0.00 0.00 0.00 100 1011.4
20260505231550 53 313 0.0 7.0 0.00 0.00 0.00 100 1011.4
20260505230037 53 5 0.0 4.0 0.00 0.00 0.00 100 1011.5
20260505224534 53 40 0.0 5.0 0.00 0.00 0.00 2 1011.5
20260505223030 54 46 0.0 4.0 0.00 0.00 0.00 17 1011.4
20260505221519 54 54 0.0 7.0 0.00 0.00 0.00 27 1011.5
20260505220015 54 344 0.0 5.0 0.00 0.00 0.00 29 1011.6
20260505214518 54 10 0.0 7.0 0.00 0.00 0.00 32 1011.5
20260505213008 55 42 0.0 4.0 0.00 0.00 0.00 34 1011.5
20260505211608 55 41 0.0 4.0 0.00 0.00 0.00 38 1011.6
20260505210024 55 5 0.0 2.0 0.00 0.00 0.00 30 1011.5
20260505204520 55 18 0.0 1.0 0.00 0.00 0.00 30 1011.5
20260505203013 56 5 0.0 1.0 0.00 0.00 0.00 25 1011.4
20260505201512 56 355 0.0 0.0 0.00 0.00 0.00 25 1011.3
20260505200004 57 9 0.0 0.0 0.00 0.00 0.00 28 1011.2
20260505194501 57 360 0.0 0.0 0.00 0.00 0.00 27 1010.9
20260505193052 58 360 0.0 0.0 0.00 0.00 0.00 33 1010.8
20260505191548 58 360 0.0 0.0 0.00 0.00 0.00 36 1010.6
20260505190043 59 360 0.0 0.0 0.00 0.00 0.00 40 1010.7
20260505184539 60 360 0.0 0.0 0.00 0.00 0.00 44 1010.6
20260505183049 60 360 0.0 0.0 0.00 0.00 0.00 49 1010.5
20260505181528 60 360 0.0 2.0 0.00 0.00 0.00 51 1010.5
20260505180024 61 331 0.0 2.0 0.00 0.00 0.00 51 1010.5
20260505174519 62 34 0.0 1.0 0.00 0.00 0.00 51 1010.5
20260505173012 62 26 0.0 1.0 0.00 0.00 0.00 50 1010.6
20260505171509 63 325 0.0 1.0 0.00 0.00 0.00 49 1010.6
20260505170007 63 82 0.0 4.0 0.00 0.00 0.00 48 1010.6
20260505164606 64 355 1.0 6.0 0.00 0.00 0.00 47 1010.6
20260505163053 64 46 0.0 6.0 0.00 0.00 0.00 47 1010.6
20260505161550 64 32 0.0 5.0 0.00 0.00 0.00 47 1010.6
20260505153035 65 299 0.0 8.0 0.00 0.00 0.00 45 1010.7
20260505151529 65 5 1.0 5.0 0.00 0.00 0.00 46 1010.6
20260505124519 64 20 1.0 11.0 0.00 0.00 0.00 49 1011.2
20260505123006 65 54 0.0 7.0 0.00 0.00 0.00 49 1011.2
20260505121501 66 37 0.0 5.0 0.00 0.00 0.00 49 1011.2
20260505120051 66 348 0.0 6.0 0.00 0.00 0.00 49 1011.2
20260505114550 66 17 0.0 6.0 0.00 0.00 0.00 48 1011.2
20260505113039 65 30 0.0 7.0 0.00 0.00 0.00 48 1011.3
20260505111534 64 40 0.0 4.0 0.00 0.00 0.00 42 1011.3
20260505101526 64 288 0.0 4.0 0.00 0.00 0.00 17 1011.4
20260505100021 64 36 0.0 4.0 0.00 0.00 0.00 20 1011.4
20260505094526 65 227 0.0 1.0 0.00 0.00 0.00 7 1011.3
20260505093013 63 94 0.0 5.0 0.00 0.00 0.00 100 1011.4
20260505091509 63 295 0.0 6.0 0.00 0.00 0.00 100 1011.6
20260505090016 62 320 0.0 7.0 0.00 0.00 0.00 100 1011.5
20260505084503 61 30 0.0 7.0 0.00 0.00 0.00 100 1011.5